Weather History for KIWD - August, 2013

Change the Weather History Date:

Saturday, August 24, 2013

  Actual Average Record
Temperature  
Mean Temperature 71 °F -  
Max Temperature 80 °F 72 °F 84 °F (2003)
Min Temperature 62 °F 52 °F 42 °F (2008)
Cooling Degree Days 6    
Growing Degree Days 21 (Base 50)    
Moisture  
Dew Point 60 °F    
Average Humidity 65    
Maximum Humidity 77    
Minimum Humidity 51    
Precipitation  
Precipitation 0.00 in - - ()
Sea Level Pressure  
Sea Level Pressure 30.07 in    
Wind  
Wind Speed 11 mph (South)    
Max Wind Speed 23 mph    
Max Gust Speed 34 mph    
Visibility 10 miles    
Events      
Averages and records for this station are not official NWS values.
T = Trace of Precipitation, MM = Missing Value Source: NWS Daily Summary

Daily Weather History Graph

Daily Weather History Graph

Search for Another Location

Airport or City:

Trip Planner

Search our weather history database for the weather conditions in past years. The results will help you decide how hot, cold, wet, or windy it might be!

Date:

Astronomy

Aug. 24, 2013 Rise Set
Actual Time 6:10 AM CDT 7:53 PM CDT
Civil Twilight 5:38 AM CDT 8:25 PM CDT
Nautical Twilight 4:59 AM CDT 9:04 PM CDT
Astronomical Twilight 4:16 AM CDT 9:46 PM CDT
Moon 9:28 PM CDT (8/24) 10:28 AM CDT (8/24)
Length of Visible Light 14h 47m
Length of Day
13h 43m
Waning Gibbous, 84% of the Moon is Illuminated
Aug 24
Waning Gibbous
Aug 28
Last Quarter
Sep 5
New
Sep 12
First Quarter
Sep 19
Full

Hourly Weather History & Observations

Time (CDT) Temp. Heat Index Dew Point Humidity Pressure Visibility Wind Dir Wind Speed Gust Speed Precip Events Conditions
12:15 AM 66.2 °F - 57.2 °F 73% 30.10 in 10.0 mi South 10.4 mph 17.3 mph N/A   Clear
12:35 AM 66.2 °F - 57.2 °F 73% 30.10 in 10.0 mi South 9.2 mph - N/A   Clear
12:55 AM 66.2 °F - 57.2 °F 73% 30.10 in 10.0 mi South 10.4 mph - N/A   Clear
1:15 AM 66.2 °F - 57.2 °F 73% 30.11 in 10.0 mi South 9.2 mph - N/A   Clear
1:35 AM 66.2 °F - 57.2 °F 73% 30.11 in 10.0 mi South 10.4 mph - N/A   Clear
1:55 AM 66.2 °F - 57.2 °F 73% 30.11 in 10.0 mi South 8.1 mph - N/A   Clear
2:15 AM 64.4 °F - 57.2 °F 77% 30.12 in 10.0 mi South 9.2 mph - N/A   Clear
2:35 AM 64.4 °F - 57.2 °F 77% 30.12 in 10.0 mi South 8.1 mph - N/A   Clear
2:55 AM 64.4 °F - 57.2 °F 77% 30.13 in 10.0 mi South 8.1 mph - N/A   Clear
3:15 AM 64.4 °F - 57.2 °F 77% 30.13 in 10.0 mi South 9.2 mph - N/A   Clear
3:35 AM 64.4 °F - 57.2 °F 77% 30.14 in 10.0 mi South 9.2 mph - N/A   Clear
3:55 AM 64.4 °F - 57.2 °F 77% 30.14 in 10.0 mi South 6.9 mph - N/A   Clear
4:15 AM 64.4 °F - 57.2 °F 77% 30.14 in 10.0 mi South 4.6 mph - N/A   Clear
4:35 AM 64.4 °F - 57.2 °F 77% 30.14 in 10.0 mi South 6.9 mph - N/A   Clear
4:55 AM 64.4 °F - 55.4 °F 73% 30.14 in 10.0 mi South 6.9 mph - N/A   Clear
5:15 AM 62.6 °F - 55.4 °F 77% 30.14 in 10.0 mi South 5.8 mph - N/A   Clear
5:35 AM 62.6 °F - 55.4 °F 77% 30.15 in 10.0 mi South 3.5 mph - N/A   Clear
5:55 AM 62.6 °F - 55.4 °F 77% 30.15 in 10.0 mi South 5.8 mph - N/A   Clear
6:15 AM 62.6 °F - 55.4 °F 77% 30.16 in 10.0 mi SSE 4.6 mph - N/A   Clear
6:35 AM 62.6 °F - 55.4 °F 77% 30.16 in 10.0 mi South 8.1 mph - N/A   Clear
6:55 AM 62.6 °F - 55.4 °F 77% 30.15 in 10.0 mi South 5.8 mph - N/A   Clear
7:15 AM 64.4 °F - 55.4 °F 73% 30.15 in 10.0 mi South 10.4 mph - N/A   Clear
7:35 AM 64.4 °F - 55.4 °F 73% 30.15 in 10.0 mi South 10.4 mph - N/A   Clear
7:55 AM 66.2 °F - 57.2 °F 73% 30.14 in 10.0 mi South 9.2 mph 17.3 mph N/A   Partly Cloudy
8:15 AM 66.2 °F - 57.2 °F 73% 30.13 in 10.0 mi South 13.8 mph 19.6 mph N/A   Scattered Clouds
8:35 AM 68.0 °F - 55.4 °F 64% 30.13 in 10.0 mi South 12.7 mph 20.7 mph N/A   Partly Cloudy
8:55 AM 68.0 °F - 55.4 °F 64% 30.12 in 10.0 mi South 11.5 mph 19.6 mph N/A   Clear
9:15 AM 69.8 °F - 55.4 °F 60% 30.12 in 10.0 mi South 12.7 mph 19.6 mph N/A   Clear
9:35 AM 71.6 °F - 57.2 °F 60% 30.12 in 10.0 mi South 9.2 mph 17.3 mph N/A   Clear
9:55 AM 71.6 °F - 57.2 °F 60% 30.12 in 10.0 mi South 15.0 mph 20.7 mph N/A   Clear
10:15 AM 73.4 °F - 57.2 °F 57% 30.11 in 10.0 mi SSW 16.1 mph 23.0 mph N/A   Clear
10:35 AM 73.4 °F - 57.2 °F 57% 30.12 in 10.0 mi SSW 11.5 mph 24.2 mph N/A   Clear
10:55 AM 73.4 °F - 57.2 °F 57% 30.12 in 10.0 mi South 15.0 mph 19.6 mph N/A   Partly Cloudy
11:15 AM 75.2 °F - 57.2 °F 53% 30.11 in 10.0 mi South 11.5 mph 24.2 mph N/A   Partly Cloudy
11:35 AM 75.2 °F - 57.2 °F 53% 30.11 in 10.0 mi South 19.6 mph 27.6 mph N/A   Clear
11:55 AM 75.2 °F - 57.2 °F 53% 30.10 in 10.0 mi South 16.1 mph 24.2 mph N/A   Clear
12:15 PM 77.0 °F - 59.0 °F 54% 30.10 in 10.0 mi South 10.4 mph 23.0 mph N/A   Clear
12:35 PM 78.8 °F - 60.8 °F 54% 30.09 in 10.0 mi South 10.4 mph - N/A   Clear
12:55 PM 78.8 °F - 60.8 °F 54% 30.08 in 10.0 mi South 16.1 mph 21.9 mph N/A   Clear
1:15 PM 78.8 °F - 60.8 °F 54% 30.07 in 10.0 mi South 12.7 mph 20.7 mph N/A   Clear
1:35 PM 78.8 °F - 60.8 °F 54% 30.08 in 10.0 mi South 18.4 mph 23.0 mph N/A   Clear
1:55 PM 80.6 °F 81.5 °F 60.8 °F 51% 30.07 in 10.0 mi South 10.4 mph 26.5 mph N/A   Clear
2:15 PM 80.6 °F 81.5 °F 60.8 °F 51% 30.07 in 10.0 mi South 9.2 mph 21.9 mph N/A   Clear
2:35 PM 80.6 °F 81.5 °F 60.8 °F 51% 30.06 in 10.0 mi SSE 16.1 mph 20.7 mph N/A   Clear
2:55 PM 80.6 °F 81.5 °F 60.8 °F 51% 30.05 in 10.0 mi South 15.0 mph 25.3 mph N/A   Clear
3:15 PM 80.6 °F 81.8 °F 62.6 °F 54% 30.04 in 10.0 mi South 11.5 mph 18.4 mph N/A   Clear
3:35 PM 80.6 °F 81.5 °F 60.8 °F 51% 30.04 in 10.0 mi South 17.3 mph 26.5 mph N/A   Clear
3:55 PM 80.6 °F 81.8 °F 62.6 °F 54% 30.03 in 10.0 mi SSE 11.5 mph 18.4 mph N/A   Clear
4:15 PM 80.6 °F 81.8 °F 62.6 °F 54% 30.02 in 10.0 mi South 15.0 mph 23.0 mph N/A   Clear
4:35 PM 80.6 °F 81.8 °F 62.6 °F 54% 30.02 in 10.0 mi South 15.0 mph 23.0 mph N/A   Clear
4:55 PM 80.6 °F 81.8 °F 62.6 °F 54% 30.01 in 10.0 mi South 11.5 mph 16.1 mph N/A   Clear
5:15 PM 80.6 °F 82.3 °F 64.4 °F 58% 30.01 in 10.0 mi South 10.4 mph 21.9 mph N/A   Clear
5:35 PM 80.6 °F 81.8 °F 62.6 °F 54% 30.01 in 10.0 mi South 10.4 mph 24.2 mph N/A   Clear
5:55 PM 80.6 °F 81.8 °F 62.6 °F 54% 30.00 in 10.0 mi South 12.7 mph 18.4 mph N/A   Clear
6:15 PM 80.6 °F 81.8 °F 62.6 °F 54% 30.00 in 10.0 mi South 11.5 mph 23.0 mph N/A   Clear
6:35 PM 78.8 °F - 64.4 °F 61% 29.99 in 10.0 mi South 10.4 mph 17.3 mph N/A   Clear
6:55 PM 78.8 °F - 64.4 °F 61% 29.99 in 10.0 mi South 12.7 mph 19.6 mph N/A   Clear
7:15 PM 78.8 °F - 64.4 °F 61% 29.99 in 10.0 mi South 10.4 mph 24.2 mph N/A   Clear
7:35 PM 78.8 °F - 64.4 °F 61% 29.98 in 10.0 mi South 15.0 mph 21.9 mph N/A   Clear
7:55 PM 77.0 °F - 64.4 °F 65% 29.98 in 10.0 mi South 13.8 mph 23.0 mph N/A   Clear
8:15 PM 77.0 °F - 64.4 °F 65% - 10.0 mi North - - N/A   Clear
8:35 PM 77.0 °F - 64.4 °F 65% 29.96 in 10.0 mi South 13.8 mph 26.5 mph N/A   Clear
8:55 PM 77.0 °F - 64.4 °F 65% 29.95 in 10.0 mi South 12.7 mph 25.3 mph N/A   Clear
9:15 PM 77.0 °F - 64.4 °F 65% 29.94 in 10.0 mi South 19.6 mph 29.9 mph N/A   Partly Cloudy
9:35 PM 77.0 °F - 66.2 °F 69% 29.92 in 10.0 mi South 16.1 mph 28.8 mph N/A   Clear
9:55 PM 77.0 °F - 66.2 °F 69% 29.92 in 10.0 mi South 20.7 mph 29.9 mph N/A   Clear
10:15 PM 77.0 °F - 66.2 °F 69% 29.93 in 10.0 mi South 18.4 mph 31.1 mph N/A   Clear
10:35 PM 77.0 °F - 66.2 °F 69% 29.94 in 10.0 mi South 18.4 mph 27.6 mph N/A   Clear
10:55 PM 77.0 °F - 66.2 °F 69% 29.94 in 10.0 mi South 19.6 mph 29.9 mph N/A   Clear
11:15 PM 77.0 °F - 66.2 °F 69% 29.96 in 10.0 mi South 17.3 mph 29.9 mph N/A   Clear
11:35 PM 77.0 °F - 66.2 °F 69% 29.95 in 10.0 mi South 18.4 mph 34.5 mph N/A   Clear
11:55 PM 77.0 °F - 66.2 °F 69% 29.96 in 10.0 mi SSW 23.0 mph 31.1 mph N/A   Clear